TimeEDT,TemperatureF,Dew PointF,Humidity,Sea Level PressureIn,VisibilityMPH,Wind Direction,Wind SpeedMPH,Gust SpeedMPH,PrecipitationIn,Events,Conditions,WindDirDegrees,DateUTC
12:58 AM,75.0,73.0,94,29.89,8.0,SW,12.7,-,N/A,,Mostly Cloudy,220,2013-06-08 04:58:00
1:58 AM,75.0,73.0,94,29.89,9.0,SSW,11.5,-,N/A,,Overcast,210,2013-06-08 05:58:00
2:58 AM,75.9,73.9,94,29.90,9.0,SSW,15.0,-,N/A,,Overcast,210,2013-06-08 06:58:00
3:58 AM,75.9,73.9,94,29.91,9.0,SSW,15.0,23.0,N/A,,Overcast,210,2013-06-08 07:58:00
4:58 AM,75.9,75.0,97,29.91,8.0,SSW,16.1,23.0,N/A,,Overcast,200,2013-06-08 08:58:00
5:27 AM,75.2,75.2,100,29.92,8.0,SSW,16.1,-,N/A,,Overcast,200,2013-06-08 09:27:00
5:34 AM,75.2,75.2,100,29.92,8.0,SSW,18.4,23.0,N/A,,Overcast,200,2013-06-08 09:34:00
5:47 AM,75.2,75.2,100,29.92,8.0,SSW,15.0,24.2,N/A,,Overcast,210,2013-06-08 09:47:00
5:58 AM,75.9,75.0,97,29.93,7.0,SSW,16.1,23.0,N/A,,Overcast,210,2013-06-08 09:58:00
6:58 AM,77.0,75.0,94,29.94,7.0,SSW,17.3,-,N/A,,Partly Cloudy,210,2013-06-08 10:58:00
7:58 AM,77.0,75.0,94,29.96,8.0,SW,15.0,-,N/A,,Mostly Cloudy,220,2013-06-08 11:58:00
8:32 AM,78.8,71.6,78,29.97,9.0,SSW,11.5,-,N/A,,Overcast,200,2013-06-08 12:32:00
8:58 AM,78.1,72.0,81,29.98,7.0,South,10.4,-,N/A,,Overcast,190,2013-06-08 12:58:00
9:22 AM,78.8,73.4,83,29.98,6.0,SSW,10.4,-,N/A,,Overcast,200,2013-06-08 13:22:00
9:58 AM,80.1,77.0,90,30.00,7.0,SSW,12.7,-,N/A,,Overcast,200,2013-06-08 13:58:00
10:20 AM,80.6,77.0,89,30.00,8.0,SSW,16.1,21.9,N/A,,Overcast,210,2013-06-08 14:20:00
10:51 AM,82.4,77.0,84,30.00,8.0,SSW,16.1,-,N/A,,Mostly Cloudy,210,2013-06-08 14:51:00
10:58 AM,81.0,77.0,88,30.00,7.0,SSW,15.0,-,N/A,,Mostly Cloudy,200,2013-06-08 14:58:00
11:16 AM,82.4,77.0,84,30.00,7.0,SSW,18.4,24.2,N/A,,Scattered Clouds,200,2013-06-08 15:16:00
11:58 AM,82.0,77.0,85,30.01,8.0,SSW,17.3,23.0,N/A,,Clear,210,2013-06-08 15:58:00
12:58 PM,82.0,75.0,79,30.00,9.0,SSW,18.4,-,N/A,,Clear,210,2013-06-08 16:58:00
1:58 PM,82.0,75.0,79,29.99,10.0,SSW,18.4,26.5,N/A,,Clear,210,2013-06-08 17:58:00
2:58 PM,81.0,75.0,82,29.99,9.0,SSW,20.7,27.6,N/A,,Clear,210,2013-06-08 18:58:00
3:58 PM,81.0,75.0,82,30.00,9.0,SSW,21.9,26.5,N/A,,Clear,200,2013-06-08 19:58:00
4:58 PM,80.1,75.0,85,30.00,9.0,SSW,17.3,25.3,N/A,,Clear,210,2013-06-08 20:58:00
5:58 PM,79.0,75.0,88,30.01,9.0,SSW,16.1,-,N/A,,Clear,210,2013-06-08 21:58:00
6:58 PM,78.1,73.9,87,30.03,8.0,SSW,15.0,-,N/A,,Clear,210,2013-06-08 22:58:00
7:58 PM,77.0,73.9,90,30.06,8.0,SW,12.7,-,N/A,,Clear,220,2013-06-08 23:58:00
8:58 PM,75.9,73.9,94,30.07,9.0,SW,13.8,-,N/A,,Mostly Cloudy,230,2013-06-09 00:58:00
9:58 PM,75.9,73.9,94,30.10,10.0,SW,11.5,-,N/A,,Mostly Cloudy,220,2013-06-09 01:58:00
10:58 PM,75.9,73.9,94,30.12,10.0,SW,10.4,-,N/A,,Mostly Cloudy,230,2013-06-09 02:58:00
11:58 PM,75.9,73.9,94,30.12,10.0,SW,12.7,-,N/A,,Clear,230,2013-06-09 03:58:00